Location: Abraham Lincoln Continuation High School
(33.9711°N, 117.3662°W)
Time: 08:35:13
(UTC+00:00)

Iridium 4 Rocket - Pass Details

Date: 23 January 2021
Orbit: 583 x 906 km, 86.9° (Epoch: 24 February)

Event Time Altitude Azimuth Distance (km) Brightness Sun altitude
Rises 03:14:46 0° 352° (N) 3,413 6.9 -25.6°
Reaches altitude 10° 03:17:20 10° 346° (NNW) 2,432 6.2 -26.1°
Maximum altitude 03:22:32 47° 274° (W) 1,022 4.4 -27.2°
Drops below altitude 10° 03:27:17 10° 202° (SSW) 2,217 6.2 -28.2°
Sets 03:29:32 0° 196° (SSW) 3,083 6.9 -28.6°
